Location: Antin
(43.3330°N, 0.2804°E)
Time: 07:41:44
(UTC+00:00)

SME Rocket - Pass Details

Date: 30 May 2022
Orbit: 551 x 2650 km, 99.9° (Epoch: 06 July)

Event Time Altitude Azimuth Distance (km) Brightness Sun altitude
Exits shadow 00:00:05 10° 94° (E) 2,051 5.7 -24.9°
Maximum altitude 00:02:58 18° 52° (NE) 1,792 5.8 -24.9°
Drops below altitude 10° 00:06:33 10° 11° (N) 2,590 7.3 -24.9°
Sets 00:10:10 0° 355° (N) 3,887 8.5 -24.9°
